Voltar ao catálogo

STARLINK-11223

AtivoComunicaçõesVLEO
NORAD 60307·PAYLOAD·🇺🇸 United States

Lançado Jul 28, 2024 de Vandenberg Space Force Base

Loading…

Próximas Passagens (próximas 24 horas)

TLE

AtualizadoSource: CelesTrak SupGP

Época: Sep 14, 2026, 14:02 UTC

1 60307C 24133G   26257.58520833  .00060412  00000+0  49775-3 0  2579
2 60307  53.1570 294.8551 0001364  65.5369 334.5178 15.69673378    18

Acompanhe STARLINK-11223 em tempo real com AllMySat

Download on the App Store